User: anonymous
Location: Radomski Observatory
(40.2854°N, 79.5145°W)
Time: 19:46:42
(UTC-04:00)
Language:

Uosat F - Orbit

View from above orbital plane
View from above orbital plane
View from above satellite
View from above satellite

Ground track
Ground track

The orbit data is extracted from the following two-line orbital elements,

1 21575U 91050B   14260.93569017  .00000230  00000-0  86926-4 0  1103
2 21575 098.7096 238.7169 0008060 053.6764 003.9649 14.40423940216834
Epoch (UTC): 17 September 2014 22:27:23
Eccentricity: 0.0008060
inclination: 98.7096°
perigee height: 751 km
apogee height: 763 km
right ascension of ascending node: 238.7169°
argument of perigee: 53.6764°
revolutions per day: 14.40423940
mean anomaly at epoch: 3.9649°
orbit number at epoch: 21683

The dashed part of the orbit path shows where the satellite is in the earth's shadow,  

DLR